Time,TemperatureF,DewpointF,PressureIn,WindDirection,WindDirectionDegrees,WindSpeedMPH,WindSpeedGustMPH,Humidity,HourlyPrecipIn,Conditions,Clouds,dailyrainin,SoftwareType,DateUTC
2013-05-13 00:00:00,28.1,25.5,30.13,WNW,288,0.0,0.0,90,0.00,,---,0.00,VWS V14.01,2013-05-13 05:00:00,
2013-05-13 00:01:00,27.9,25.1,30.13,WNW,288,0.0,0.0,89,0.00,,---,0.00,VWS V14.01,2013-05-13 05:01:00,
2013-05-13 00:06:00,27.4,24.6,30.13,WNW,288,0.0,0.0,89,0.00,,---,0.00,VWS V14.01,2013-05-13 05:06:00,
2013-05-13 00:11:00,26.9,24.1,30.13,WNW,288,0.0,0.0,89,0.00,,---,0.00,VWS V14.01,2013-05-13 05:11:00,
2013-05-13 00:16:00,26.9,24.4,30.13,WNW,288,0.0,0.0,90,0.00,,---,0.00,VWS V14.01,2013-05-13 05:16:00,
2013-05-13 00:21:00,26.9,24.4,30.13,WNW,288,0.0,0.0,90,0.00,,---,0.00,VWS V14.01,2013-05-13 05:21:00,
2013-05-13 00:26:00,26.7,24.2,30.12,WNW,288,0.0,0.0,90,0.00,,---,0.00,VWS V14.01,2013-05-13 05:26:00,
2013-05-13 00:30:00,26.7,24.2,30.13,WNW,288,0.0,0.0,90,0.00,,---,0.00,VWS V14.01,2013-05-13 05:30:00,
2013-05-13 00:31:00,26.5,24.2,30.12,WNW,288,0.0,0.0,91,0.00,,---,0.00,VWS V14.01,2013-05-13 05:31:00,
2013-05-13 00:36:00,26.4,24.1,30.12,WNW,288,0.0,0.0,91,0.00,,---,0.00,VWS V14.01,2013-05-13 05:36:00,
2013-05-13 00:41:00,26.4,24.1,30.12,WNW,288,0.0,0.0,91,0.00,,---,0.00,VWS V14.01,2013-05-13 05:41:00,
2013-05-13 00:46:00,26.9,24.9,30.12,WNW,288,0.0,0.0,92,0.00,,---,0.00,VWS V14.01,2013-05-13 05:46:00,
2013-05-13 00:51:00,26.9,24.9,30.12,WNW,288,0.0,0.0,92,0.00,,---,0.00,VWS V14.01,2013-05-13 05:51:00,
2013-05-13 00:56:00,27.3,25.5,30.12,WNW,288,0.0,0.0,93,0.00,,---,0.00,VWS V14.01,2013-05-13 05:56:00,
2013-05-13 01:00:00,27.3,25.8,30.12,WNW,288,0.0,0.0,94,0.00,,---,0.00,VWS V14.01,2013-05-13 06:00:00,
2013-05-13 01:01:00,27.2,25.5,30.13,WNW,288,0.0,0.0,93,0.00,,---,0.00,VWS V14.01,2013-05-13 06:01:00,
2013-05-13 01:06:00,26.8,25.0,30.13,WNW,288,0.0,0.0,93,0.00,,---,0.00,VWS V14.01,2013-05-13 06:06:00,
2013-05-13 01:11:00,27.0,25.5,30.13,WNW,288,0.0,0.0,94,0.00,,---,0.00,VWS V14.01,2013-05-13 06:11:00,
2013-05-13 01:16:00,26.8,25.0,30.13,WNW,288,0.0,0.0,93,0.00,,---,0.00,VWS V14.01,2013-05-13 06:16:00,
2013-05-13 01:21:00,26.6,24.9,30.13,WNW,288,0.0,0.0,93,0.00,,---,0.00,VWS V14.01,2013-05-13 06:21:00,
2013-05-13 01:26:00,26.2,24.5,30.13,WNW,288,0.0,0.0,93,0.00,,---,0.00,VWS V14.01,2013-05-13 06:26:00,
2013-05-13 01:30:00,26.0,24.3,30.13,WNW,288,0.0,0.0,93,0.00,,---,0.00,VWS V14.01,2013-05-13 06:30:00,
2013-05-13 01:31:00,26.1,24.4,30.12,WNW,288,0.0,0.0,93,0.00,,---,0.00,VWS V14.01,2013-05-13 06:31:00,
2013-05-13 01:36:00,26.5,25.0,30.12,WNW,288,0.0,0.0,94,0.00,,---,0.00,VWS V14.01,2013-05-13 06:36:00,
2013-05-13 01:41:00,27.1,25.9,30.12,WNW,288,0.0,0.0,95,0.00,,---,0.00,VWS V14.01,2013-05-13 06:41:00,
2013-05-13 01:46:00,27.3,26.1,30.13,WNW,288,0.0,0.0,95,0.00,,---,0.00,VWS V14.01,2013-05-13 06:46:00,
2013-05-13 01:51:00,27.5,26.3,30.13,WNW,288,0.0,0.0,95,0.00,,---,0.00,VWS V14.01,2013-05-13 06:51:00,
2013-05-13 01:56:00,27.7,26.5,30.13,WNW,288,0.0,0.0,95,0.00,,---,0.00,VWS V14.01,2013-05-13 06:56:00,
2013-05-13 02:00:00,27.6,26.4,30.13,WNW,288,0.0,0.0,95,0.00,,---,0.00,VWS V14.01,2013-05-13 07:00:00,
2013-05-13 02:01:00,27.5,26.3,30.13,WNW,288,0.0,0.0,95,0.00,,---,0.00,VWS V14.01,2013-05-13 07:01:00,
2013-05-13 02:06:00,27.3,26.1,30.13,WNW,288,0.0,0.0,95,0.00,,---,0.00,VWS V14.01,2013-05-13 07:06:00,
2013-05-13 02:11:00,27.4,26.2,30.13,WNW,288,0.0,0.0,95,0.00,,---,0.00,VWS V14.01,2013-05-13 07:11:00,
2013-05-13 02:16:00,27.8,26.6,30.13,WNW,288,0.0,0.0,95,0.00,,---,0.00,VWS V14.01,2013-05-13 07:16:00,
2013-05-13 02:21:00,28.2,27.2,30.13,WNW,288,0.0,0.0,96,0.00,,---,0.00,VWS V14.01,2013-05-13 07:21:00,
2013-05-13 02:26:00,28.3,27.3,30.13,WNW,288,0.0,0.0,96,0.00,,---,0.00,VWS V14.01,2013-05-13 07:26:00,
2013-05-13 02:30:00,28.3,27.3,30.13,WNW,288,0.0,0.0,96,0.00,,---,0.00,VWS V14.01,2013-05-13 07:30:00,
2013-05-13 02:31:00,28.4,27.1,30.13,WNW,288,0.0,0.0,95,0.00,,---,0.00,VWS V14.01,2013-05-13 07:31:00,
2013-05-13 02:36:00,28.9,27.9,30.13,WNW,288,0.0,0.0,96,0.00,,---,0.00,VWS V14.01,2013-05-13 07:36:00,
2013-05-13 02:41:00,28.8,27.8,30.13,WNW,288,0.0,0.0,96,0.00,,---,0.00,VWS V14.01,2013-05-13 07:41:00,
2013-05-13 02:46:00,28.3,27.0,30.13,WNW,288,0.0,0.0,95,0.00,,---,0.00,VWS V14.01,2013-05-13 07:46:00,
2013-05-13 02:51:00,28.1,26.9,30.13,WNW,288,0.0,0.0,95,0.00,,---,0.00,VWS V14.01,2013-05-13 07:51:00,
2013-05-13 02:56:00,28.1,26.9,30.14,WNW,288,0.0,0.0,95,0.00,,---,0.00,VWS V14.01,2013-05-13 07:56:00,
2013-05-13 03:00:00,28.1,26.9,30.13,WNW,288,0.0,0.0,95,0.00,,---,0.00,VWS V14.01,2013-05-13 08:00:00,
2013-05-13 03:01:00,28.2,27.0,30.14,WNW,288,0.0,0.0,95,0.00,,---,0.00,VWS V14.01,2013-05-13 08:01:00,
2013-05-13 03:06:00,28.3,27.0,30.14,WNW,288,0.0,0.0,95,0.00,,---,0.00,VWS V14.01,2013-05-13 08:06:00,
2013-05-13 03:11:00,28.2,27.0,30.14,WNW,288,0.0,0.0,95,0.00,,---,0.00,VWS V14.01,2013-05-13 08:11:00,
2013-05-13 03:16:00,28.1,26.9,30.14,WNW,288,0.0,0.0,95,0.00,,---,0.00,VWS V14.01,2013-05-13 08:16:00,
2013-05-13 03:21:00,27.7,26.5,30.14,WNW,288,0.0,0.0,95,0.00,,---,0.00,VWS V14.01,2013-05-13 08:21:00,
2013-05-13 03:26:00,27.6,26.4,30.14,WNW,288,0.0,0.0,95,0.00,,---,0.00,VWS V14.01,2013-05-13 08:26:00,
2013-05-13 03:30:00,27.6,26.4,30.14,WNW,288,0.0,0.0,95,0.00,,---,0.00,VWS V14.01,2013-05-13 08:30:00,
2013-05-13 03:31:00,27.7,26.5,30.14,WNW,288,0.0,0.0,95,0.00,,---,0.00,VWS V14.01,2013-05-13 08:31:00,
2013-05-13 03:36:00,28.1,27.1,30.14,WNW,288,0.0,0.0,96,0.00,,---,0.00,VWS V14.01,2013-05-13 08:36:00,
2013-05-13 03:41:00,28.3,27.3,30.14,WNW,287,0.0,1.0,96,0.00,,---,0.00,VWS V14.01,2013-05-13 08:41:00,
2013-05-13 03:46:00,28.7,27.7,30.14,WNW,287,0.0,1.0,96,0.00,,---,0.00,VWS V14.01,2013-05-13 08:46:00,
2013-05-13 03:51:00,29.0,27.8,30.14,West,276,0.0,1.0,95,0.00,,---,0.00,VWS V14.01,2013-05-13 08:51:00,
2013-05-13 03:56:00,29.2,27.7,30.14,West,275,0.0,1.0,94,0.00,,---,0.00,VWS V14.01,2013-05-13 08:56:00,
2013-05-13 04:00:00,29.2,27.7,30.14,West,276,0.0,1.0,94,0.00,,---,0.00,VWS V14.01,2013-05-13 09:00:00,
2013-05-13 04:01:00,29.3,27.5,30.14,WSW,250,0.0,1.0,93,0.00,,---,0.00,VWS V14.01,2013-05-13 09:01:00,
2013-05-13 04:06:00,29.4,27.4,30.14,WSW,250,0.0,1.0,92,0.00,,---,0.00,VWS V14.01,2013-05-13 09:06:00,
2013-05-13 04:11:00,29.3,27.0,30.14,WSW,250,0.0,1.0,91,0.00,,---,0.00,VWS V14.01,2013-05-13 09:11:00,
2013-05-13 04:16:00,29.0,26.7,30.14,WSW,250,0.0,1.0,91,0.00,,---,0.00,VWS V14.01,2013-05-13 09:16:00,
2013-05-13 04:21:00,28.6,26.3,30.14,WSW,250,0.0,1.0,91,0.00,,---,0.00,VWS V14.01,2013-05-13 09:21:00,
2013-05-13 04:26:00,28.3,26.0,30.14,WSW,250,0.0,1.0,91,0.00,,---,0.00,VWS V14.01,2013-05-13 09:26:00,
2013-05-13 04:30:00,28.1,25.8,30.14,WSW,250,0.0,1.0,91,0.00,,---,0.00,VWS V14.01,2013-05-13 09:30:00,
2013-05-13 04:31:00,28.0,25.7,30.14,WSW,250,0.0,0.0,91,0.00,,---,0.00,VWS V14.01,2013-05-13 09:31:00,
2013-05-13 04:36:00,28.1,26.1,30.14,WSW,250,0.0,0.0,92,0.00,,---,0.00,VWS V14.01,2013-05-13 09:36:00,
2013-05-13 04:41:00,28.0,26.0,30.14,WSW,250,0.0,0.0,92,0.00,,---,0.00,VWS V14.01,2013-05-13 09:41:00,
2013-05-13 04:46:00,28.3,26.5,30.14,WSW,250,0.0,0.0,93,0.00,,---,0.00,VWS V14.01,2013-05-13 09:46:00,
2013-05-13 04:51:00,28.2,26.4,30.14,WSW,250,0.0,0.0,93,0.00,,---,0.00,VWS V14.01,2013-05-13 09:51:00,
2013-05-13 04:56:00,27.7,25.7,30.14,WSW,250,0.0,0.0,92,0.00,,---,0.00,VWS V14.01,2013-05-13 09:56:00,
2013-05-13 05:00:00,27.6,25.6,30.14,WSW,250,0.0,0.0,92,0.00,,---,0.00,VWS V14.01,2013-05-13 10:00:00,
2013-05-13 05:01:00,27.3,25.3,30.14,WSW,250,0.0,0.0,92,0.00,,---,0.00,VWS V14.01,2013-05-13 10:01:00,
2013-05-13 05:06:00,26.7,24.7,30.14,WSW,250,0.0,0.0,92,0.00,,---,0.00,VWS V14.01,2013-05-13 10:06:00,
2013-05-13 05:11:00,26.3,24.3,30.14,WSW,250,0.0,0.0,92,0.00,,---,0.00,VWS V14.01,2013-05-13 10:11:00,
2013-05-13 05:16:00,25.9,23.9,30.15,WSW,251,0.0,0.0,92,0.00,,---,0.00,VWS V14.01,2013-05-13 10:16:00,
2013-05-13 05:21:00,25.6,23.6,30.15,WSW,250,0.0,0.0,92,0.00,,---,0.00,VWS V14.01,2013-05-13 10:21:00,
2013-05-13 05:26:00,25.8,24.3,30.15,WSW,250,0.0,0.0,94,0.00,,---,0.00,VWS V14.01,2013-05-13 10:26:00,
2013-05-13 05:30:00,26.1,24.6,30.15,WSW,250,0.0,0.0,94,0.00,,---,0.00,VWS V14.01,2013-05-13 10:30:00,
2013-05-13 05:31:00,26.4,25.2,30.15,WSW,250,0.0,0.0,95,0.00,,---,0.00,VWS V14.01,2013-05-13 10:31:00,
2013-05-13 05:36:00,26.3,25.1,30.15,WSW,250,0.0,0.0,95,0.00,,---,0.00,VWS V14.01,2013-05-13 10:36:00,
2013-05-13 05:41:00,26.3,24.8,30.15,WSW,250,0.0,0.0,94,0.00,,---,0.00,VWS V14.01,2013-05-13 10:41:00,
2013-05-13 05:46:00,26.1,24.6,30.15,WSW,250,0.0,0.0,94,0.00,,---,0.00,VWS V14.01,2013-05-13 10:46:00,
2013-05-13 05:51:00,25.9,24.4,30.15,WSW,250,0.0,0.0,94,0.00,,---,0.00,VWS V14.01,2013-05-13 10:51:00,
2013-05-13 05:56:00,25.9,24.7,30.16,WSW,250,0.0,0.0,95,0.00,,---,0.00,VWS V14.01,2013-05-13 10:56:00,
2013-05-13 06:00:00,25.9,24.7,30.16,WSW,250,0.0,0.0,95,0.00,,---,0.00,VWS V14.01,2013-05-13 11:00:00,
2013-05-13 06:01:00,26.0,24.8,30.16,WSW,250,0.0,0.0,95,0.00,,---,0.00,VWS V14.01,2013-05-13 11:01:00,
2013-05-13 06:06:00,26.3,25.1,30.16,WSW,250,0.0,0.0,95,0.00,,---,0.00,VWS V14.01,2013-05-13 11:06:00,
2013-05-13 06:11:00,26.9,25.9,30.16,WSW,250,0.0,0.0,96,0.00,,---,0.00,VWS V14.01,2013-05-13 11:11:00,
2013-05-13 06:16:00,27.4,26.4,30.17,WSW,250,0.0,0.0,96,0.00,,---,0.00,VWS V14.01,2013-05-13 11:16:00,
2013-05-13 06:21:00,27.8,26.8,30.17,WSW,250,0.0,0.0,96,0.00,,---,0.00,VWS V14.01,2013-05-13 11:21:00,
2013-05-13 06:26:00,28.6,27.6,30.17,WSW,250,0.0,0.0,96,0.00,,---,0.00,VWS V14.01,2013-05-13 11:26:00,
2013-05-13 06:30:00,29.0,28.3,30.17,WSW,250,0.0,0.0,97,0.00,,---,0.00,VWS V14.01,2013-05-13 11:30:00,
2013-05-13 06:31:00,29.6,28.9,30.17,WSW,250,0.0,0.0,97,0.00,,---,0.00,VWS V14.01,2013-05-13 11:31:00,
2013-05-13 06:36:00,30.8,30.0,30.17,West,269,0.0,2.0,97,0.00,,---,0.00,VWS V14.01,2013-05-13 11:36:00,
2013-05-13 06:41:00,32.3,30.5,30.17,West,270,1.0,3.0,93,0.00,,---,0.00,VWS V14.01,2013-05-13 11:41:00,
2013-05-13 06:46:00,33.7,30.2,30.17,West,273,1.0,3.0,87,0.00,,---,0.00,VWS V14.01,2013-05-13 11:46:00,
2013-05-13 06:51:00,34.7,30.4,30.17,WNW,293,1.0,3.0,84,0.00,,---,0.00,VWS V14.01,2013-05-13 11:51:00,
2013-05-13 06:56:00,35.6,30.0,30.17,WSW,249,2.0,3.0,80,0.00,,---,0.00,VWS V14.01,2013-05-13 11:56:00,
2013-05-13 07:00:00,35.9,30.0,30.17,WSW,243,0.0,3.0,79,0.00,,---,0.00,VWS V14.01,2013-05-13 12:00:00,
2013-05-13 07:01:00,36.5,30.9,30.18,West,262,1.0,3.0,80,0.00,,---,0.00,VWS V14.01,2013-05-13 12:01:00,
2013-05-13 07:06:00,37.0,29.8,30.18,WNW,283,0.0,6.0,75,0.00,,---,0.00,VWS V14.01,2013-05-13 12:06:00,
2013-05-13 07:11:00,37.8,29.6,30.18,West,274,1.0,6.0,72,0.00,,---,0.00,VWS V14.01,2013-05-13 12:11:00,
2013-05-13 07:16:00,38.2,29.3,30.18,West,270,1.0,6.0,70,0.00,,---,0.00,VWS V14.01,2013-05-13 12:16:00,
2013-05-13 07:21:00,38.8,30.2,30.18,WNW,285,1.0,6.0,71,0.00,,---,0.00,VWS V14.01,2013-05-13 12:21:00,
2013-05-13 07:26:00,39.1,29.5,30.19,WSW,253,4.0,7.0,68,0.00,,---,0.00,VWS V14.01,2013-05-13 12:26:00,
2013-05-13 07:30:00,39.2,29.2,30.19,West,262,2.0,7.0,67,0.00,,---,0.00,VWS V14.01,2013-05-13 12:30:00,
2013-05-13 07:31:00,39.5,29.1,30.19,West,263,2.0,4.0,66,0.00,,---,0.00,VWS V14.01,2013-05-13 12:31:00,
2013-05-13 07:36:00,40.2,29.8,30.19,East,96,0.0,4.0,66,0.00,,---,0.00,VWS V14.01,2013-05-13 12:36:00,
2013-05-13 07:41:00,40.4,29.2,30.19,West,278,1.0,5.0,64,0.00,,---,0.00,VWS V14.01,2013-05-13 12:41:00,
2013-05-13 07:46:00,41.0,29.4,30.19,West,267,2.0,5.0,63,0.00,,---,0.00,VWS V14.01,2013-05-13 12:46:00,
2013-05-13 07:51:00,41.1,28.7,30.20,WNW,297,5.0,7.0,61,0.00,,---,0.00,VWS V14.01,2013-05-13 12:51:00,
2013-05-13 07:56:00,41.5,27.4,30.20,WSW,250,4.0,7.0,57,0.00,,---,0.00,VWS V14.01,2013-05-13 12:56:00,
2013-05-13 08:00:00,41.5,27.4,30.20,WSW,250,0.0,8.0,57,0.00,,---,0.00,VWS V14.01,2013-05-13 13:00:00,
2013-05-13 08:01:00,41.5,25.2,30.20,WNW,291,4.0,9.0,52,0.00,,---,0.00,VWS V14.01,2013-05-13 13:01:00,
2013-05-13 08:06:00,41.5,26.1,30.20,WSW,245,5.0,9.0,54,0.00,,---,0.00,VWS V14.01,2013-05-13 13:06:00,
2013-05-13 08:11:00,42.2,26.3,30.20,West,270,6.0,9.0,53,0.00,,---,0.00,VWS V14.01,2013-05-13 13:11:00,
2013-05-13 08:16:00,41.9,25.6,30.21,NNE,26,2.0,9.0,52,0.00,,---,0.00,VWS V14.01,2013-05-13 13:16:00,
2013-05-13 08:21:00,42.2,26.3,30.21,West,281,1.0,9.0,53,0.00,,---,0.00,VWS V14.01,2013-05-13 13:21:00,
2013-05-13 08:26:00,42.9,27.0,30.21,NE,43,7.0,9.0,53,0.00,,---,0.00,VWS V14.01,2013-05-13 13:26:00,
2013-05-13 08:30:00,42.8,25.0,30.21,WNW,288,8.0,11.0,49,0.00,,---,0.00,VWS V14.01,2013-05-13 13:30:00,
2013-05-13 08:31:00,42.8,25.0,30.21,NE,54,5.0,11.0,49,0.00,,---,0.00,VWS V14.01,2013-05-13 13:31:00,
2013-05-13 08:36:00,43.1,23.7,30.21,SSW,210,2.0,11.0,46,0.00,,---,0.00,VWS V14.01,2013-05-13 13:36:00,
2013-05-13 08:41:00,43.3,23.9,30.21,WNW,285,4.0,11.0,46,0.00,,---,0.00,VWS V14.01,2013-05-13 13:41:00,
2013-05-13 08:46:00,44.0,24.6,30.21,NNE,27,1.0,11.0,46,0.00,,---,0.00,VWS V14.01,2013-05-13 13:46:00,
2013-05-13 08:51:00,43.8,23.9,30.21,West,268,4.0,11.0,45,0.00,,---,0.00,VWS V14.01,2013-05-13 13:51:00,
2013-05-13 08:56:00,43.7,24.3,30.21,ENE,61,3.0,11.0,46,0.00,,---,0.00,VWS V14.01,2013-05-13 13:56:00,
2013-05-13 09:00:00,43.9,24.5,30.21,NE,49,6.0,11.0,46,0.00,,---,0.00,VWS V14.01,2013-05-13 14:00:00,
2013-05-13 09:01:00,43.9,24.0,30.21,WNW,294,4.0,9.0,45,0.00,,---,0.00,VWS V14.01,2013-05-13 14:01:00,
2013-05-13 09:06:00,44.0,24.0,30.21,WNW,297,5.0,9.0,45,0.00,,---,0.00,VWS V14.01,2013-05-13 14:06:00,
2013-05-13 09:11:00,43.9,24.0,30.21,WSW,253,2.0,9.0,45,0.00,,---,0.00,VWS V14.01,2013-05-13 14:11:00,
2013-05-13 09:16:00,43.9,24.0,30.21,West,266,4.0,9.0,45,0.00,,---,0.00,VWS V14.01,2013-05-13 14:16:00,
2013-05-13 09:21:00,44.3,23.8,30.21,SW,219,3.0,9.0,44,0.00,,---,0.00,VWS V14.01,2013-05-13 14:21:00,
2013-05-13 09:26:00,44.7,24.1,30.21,WSW,242,4.0,9.0,44,0.00,,---,0.00,VWS V14.01,2013-05-13 14:26:00,
2013-05-13 09:30:00,44.8,24.2,30.21,SSE,151,2.0,9.0,44,0.00,,---,0.00,VWS V14.01,2013-05-13 14:30:00,
2013-05-13 09:31:00,45.1,24.0,30.21,WSW,249,5.0,8.0,43,0.00,,---,0.00,VWS V14.01,2013-05-13 14:31:00,
2013-05-13 09:36:00,45.1,23.4,30.21,NE,42,0.0,11.0,42,0.00,,---,0.00,VWS V14.01,2013-05-13 14:36:00,
2013-05-13 09:41:00,45.5,23.2,30.21,WNW,301,4.0,11.0,41,0.00,,---,0.00,VWS V14.01,2013-05-13 14:41:00,
2013-05-13 09:46:00,45.9,24.1,30.21,WNW,292,9.0,11.0,42,0.00,,---,0.00,VWS V14.01,2013-05-13 14:46:00,
2013-05-13 09:51:00,45.8,22.3,30.21,West,280,8.0,11.0,39,0.00,,---,0.00,VWS V14.01,2013-05-13 14:51:00,
2013-05-13 09:56:00,45.8,23.5,30.21,WSW,256,2.0,11.0,41,0.00,,---,0.00,VWS V14.01,2013-05-13 14:56:00,
2013-05-13 10:00:00,46.0,23.0,30.21,West,273,1.0,11.0,40,0.00,,---,0.00,VWS V14.01,2013-05-13 15:00:00,
2013-05-13 10:01:00,46.6,23.0,30.21,West,280,6.0,10.0,39,0.00,,---,0.00,VWS V14.01,2013-05-13 15:01:00,
2013-05-13 10:06:00,46.3,23.9,30.21,SSE,149,3.0,10.0,41,0.00,,---,0.00,VWS V14.01,2013-05-13 15:06:00,
2013-05-13 10:11:00,46.6,23.6,30.21,WNW,295,2.0,10.0,40,0.00,,---,0.00,VWS V14.01,2013-05-13 15:11:00,
2013-05-13 10:16:00,46.5,22.3,30.21,SW,221,6.0,11.0,38,0.00,,---,0.00,VWS V14.01,2013-05-13 15:16:00,
2013-05-13 10:21:00,46.4,24.6,30.21,SW,236,0.0,11.0,42,0.00,,---,0.00,VWS V14.01,2013-05-13 15:21:00,
2013-05-13 10:26:00,47.1,24.0,30.21,NW,311,3.0,11.0,40,0.00,,---,0.00,VWS V14.01,2013-05-13 15:26:00,
2013-05-13 10:30:00,47.4,23.7,30.21,NW,316,4.0,11.0,39,0.00,,---,0.00,VWS V14.01,2013-05-13 15:30:00,
2013-05-13 10:31:00,47.3,23.0,30.21,West,281,5.0,9.0,38,0.00,,---,0.00,VWS V14.01,2013-05-13 15:31:00,
2013-05-13 10:36:00,47.6,23.9,30.21,SSE,162,1.0,10.0,39,0.00,,---,0.00,VWS V14.01,2013-05-13 15:36:00,
2013-05-13 10:41:00,47.9,23.5,30.21,West,269,5.0,10.0,38,0.00,,---,0.00,VWS V14.01,2013-05-13 15:41:00,
2013-05-13 10:46:00,48.2,23.8,30.21,West,267,7.0,10.0,38,0.00,,---,0.00,VWS V14.01,2013-05-13 15:46:00,
2013-05-13 10:51:00,48.6,25.4,30.21,SW,226,4.0,10.0,40,0.00,,---,0.00,VWS V14.01,2013-05-13 15:51:00,
2013-05-13 10:56:00,49.0,25.1,30.21,WNW,288,4.0,10.0,39,0.00,,---,0.00,VWS V14.01,2013-05-13 15:56:00,
2013-05-13 11:00:00,49.5,25.0,30.21,NW,321,0.0,10.0,38,0.00,,---,0.00,VWS V14.01,2013-05-13 16:00:00,
2013-05-13 11:01:00,49.9,24.0,30.21,WNW,294,4.0,7.0,36,0.00,,---,0.00,VWS V14.01,2013-05-13 16:01:00,
2013-05-13 11:06:00,49.3,23.5,30.21,West,269,1.0,10.0,36,0.00,,---,0.00,VWS V14.01,2013-05-13 16:06:00,
2013-05-13 11:11:00,49.1,24.6,30.21,West,259,7.0,10.0,38,0.00,,---,0.00,VWS V14.01,2013-05-13 16:11:00,
2013-05-13 11:16:00,49.3,23.5,30.21,WNW,291,5.0,10.0,36,0.00,,---,0.00,VWS V14.01,2013-05-13 16:16:00,
2013-05-13 11:21:00,49.2,25.3,30.21,WSW,248,2.0,14.0,39,0.00,,---,0.00,VWS V14.01,2013-05-13 16:21:00,
2013-05-13 11:26:00,49.7,24.5,30.21,ENE,71,3.0,14.0,37,0.00,,---,0.00,VWS V14.01,2013-05-13 16:26:00,
2013-05-13 11:30:00,50.0,24.1,30.21,West,264,5.0,14.0,36,0.00,,---,0.00,VWS V14.01,2013-05-13 16:30:00,
2013-05-13 11:31:00,49.6,22.4,30.21,West,278,3.0,11.0,34,0.00,,---,0.00,VWS V14.01,2013-05-13 16:31:00,
2013-05-13 11:36:00,49.6,22.4,30.21,North,11,3.0,14.0,34,0.00,,---,0.00,VWS V14.01,2013-05-13 16:36:00,
2013-05-13 11:41:00,50.3,24.4,30.21,West,262,5.0,14.0,36,0.00,,---,0.00,VWS V14.01,2013-05-13 16:41:00,
2013-05-13 11:46:00,50.6,24.0,30.21,West,275,1.0,14.0,35,0.00,,---,0.00,VWS V14.01,2013-05-13 16:46:00,
2013-05-13 11:51:00,51.0,23.6,30.21,WSW,251,1.0,14.0,34,0.00,,---,0.00,VWS V14.01,2013-05-13 16:51:00,
2013-05-13 11:56:00,50.9,24.2,30.21,NE,51,6.0,14.0,35,0.00,,---,0.00,VWS V14.01,2013-05-13 16:56:00,
2013-05-13 12:00:00,50.8,23.5,30.21,NW,304,2.0,14.0,34,0.00,,---,0.00,VWS V14.01,2013-05-13 17:00:00,
2013-05-13 12:01:00,50.6,23.3,30.21,NW,312,4.0,6.0,34,0.00,,---,0.00,VWS V14.01,2013-05-13 17:01:00,
2013-05-13 12:06:00,50.7,22.7,30.21,West,263,4.0,6.0,33,0.00,,---,0.00,VWS V14.01,2013-05-13 17:06:00,
2013-05-13 12:11:00,50.7,22.7,30.21,ENE,74,7.0,12.0,33,0.00,,---,0.00,VWS V14.01,2013-05-13 17:11:00,
2013-05-13 12:16:00,51.4,23.3,30.20,WNW,298,3.0,12.0,33,0.00,,---,0.00,VWS V14.01,2013-05-13 17:16:00,
2013-05-13 12:21:00,51.5,22.6,30.20,WSW,257,4.0,13.0,32,0.00,,---,0.00,VWS V14.01,2013-05-13 17:21:00,
2013-05-13 12:26:00,51.5,22.6,30.20,West,276,8.0,16.0,32,0.00,,---,0.00,VWS V14.01,2013-05-13 17:26:00,
2013-05-13 12:30:00,51.4,23.3,30.20,WNW,300,6.0,16.0,33,0.00,,---,0.00,VWS V14.01,2013-05-13 17:30:00,
2013-05-13 12:31:00,51.8,24.3,30.20,NNW,348,2.0,8.0,34,0.00,,---,0.00,VWS V14.01,2013-05-13 17:31:00,
2013-05-13 12:36:00,52.0,24.5,30.20,WNW,295,8.0,8.0,34,0.00,,---,0.00,VWS V14.01,2013-05-13 17:36:00,
2013-05-13 12:41:00,52.3,24.1,30.20,East,82,1.0,11.0,33,0.00,,---,0.00,VWS V14.01,2013-05-13 17:41:00,
2013-05-13 12:46:00,53.0,23.2,30.20,WNW,298,3.0,11.0,31,0.00,,---,0.00,VWS V14.01,2013-05-13 17:46:00,
2013-05-13 12:51:00,52.9,22.3,30.20,NNE,30,6.0,12.0,30,0.00,,---,0.00,VWS V14.01,2013-05-13 17:51:00,
2013-05-13 12:56:00,52.0,23.1,30.20,SW,224,3.0,12.0,32,0.00,,---,0.00,VWS V14.01,2013-05-13 17:56:00,
2013-05-13 13:00:00,52.1,23.2,30.20,NW,319,5.0,12.0,32,0.00,,---,0.00,VWS V14.01,2013-05-13 18:00:00,
2013-05-13 13:01:00,52.1,23.9,30.19,West,270,4.0,5.0,33,0.00,,---,0.00,VWS V14.01,2013-05-13 18:01:00,
2013-05-13 13:06:00,53.0,26.1,30.19,NE,39,3.0,7.0,35,0.00,,---,0.00,VWS V14.01,2013-05-13 18:06:00,
2013-05-13 13:11:00,53.4,25.0,30.19,East,92,3.0,9.0,33,0.00,,---,0.00,VWS V14.01,2013-05-13 18:11:00,
2013-05-13 13:16:00,53.3,22.7,30.20,West,278,5.0,9.0,30,0.00,,---,0.00,VWS V14.01,2013-05-13 18:16:00,
2013-05-13 13:21:00,53.2,23.4,30.19,WNW,297,6.0,9.0,31,0.00,,---,0.00,VWS V14.01,2013-05-13 18:21:00,
2013-05-13 13:26:00,53.8,25.4,30.19,West,263,3.0,12.0,33,0.00,,---,0.00,VWS V14.01,2013-05-13 18:26:00,
2013-05-13 13:30:00,53.9,23.2,30.19,North,4,4.0,12.0,30,0.00,,---,0.00,VWS V14.01,2013-05-13 18:30:00,
2013-05-13 13:31:00,54.1,23.4,30.19,SE,141,3.0,10.0,30,0.00,,---,0.00,VWS V14.01,2013-05-13 18:31:00,
2013-05-13 13:36:00,53.8,23.1,30.19,West,276,3.0,10.0,30,0.00,,---,0.00,VWS V14.01,2013-05-13 18:36:00,
2013-05-13 13:40:00,54.4,25.2,30.19,WNW,295,2.0,10.0,32,0.00,,---,0.00,VWS V14.01,2013-05-13 18:40:00,
2013-05-13 13:45:00,53.9,22.4,30.19,ENE,63,7.0,11.0,29,0.00,,---,0.00,VWS V14.01,2013-05-13 18:45:00,
2013-05-13 13:50:00,53.5,22.9,30.19,NNW,330,2.0,11.0,30,0.00,,---,0.00,VWS V14.01,2013-05-13 18:50:00,
2013-05-13 13:55:00,54.0,23.3,30.19,West,259,4.0,11.0,30,0.00,,---,0.00,VWS V14.01,2013-05-13 18:55:00,
2013-05-13 14:00:00,54.2,22.6,30.19,SW,226,2.0,8.0,29,0.00,,---,0.00,VWS V14.01,2013-05-13 19:00:00,
2013-05-13 14:05:00,54.3,24.3,30.19,WNW,291,1.0,10.0,31,0.00,,---,0.00,VWS V14.01,2013-05-13 19:05:00,
2013-05-13 14:10:00,54.7,23.1,30.19,West,276,9.0,10.0,29,0.00,,---,0.00,VWS V14.01,2013-05-13 19:10:00,
2013-05-13 14:15:00,53.9,22.4,30.19,NNW,330,8.0,10.0,29,0.00,,---,0.00,VWS V14.01,2013-05-13 19:15:00,
2013-05-13 14:20:00,54.9,25.6,30.19,WNW,296,1.0,10.0,32,0.00,,---,0.00,VWS V14.01,2013-05-13 19:20:00,
2013-05-13 14:25:00,54.7,22.3,30.18,West,259,5.0,10.0,28,0.00,,---,0.00,VWS V14.01,2013-05-13 19:25:00,
2013-05-13 14:30:00,54.8,23.2,30.18,West,267,1.0,12.0,29,0.00,,---,0.00,VWS V14.01,2013-05-13 19:30:00,
2013-05-13 14:35:00,54.8,22.3,30.18,NNE,16,4.0,12.0,28,0.00,,---,0.00,VWS V14.01,2013-05-13 19:35:00,
2013-05-13 14:40:00,54.7,22.3,30.18,SW,229,12.0,15.0,28,0.00,,---,0.00,VWS V14.01,2013-05-13 19:40:00,
2013-05-13 14:45:00,54.1,20.0,30.18,WNW,282,3.0,15.0,26,0.00,,---,0.00,VWS V14.01,2013-05-13 19:45:00,
2013-05-13 14:50:00,54.4,22.8,30.18,WNW,291,5.0,15.0,29,0.00,,---,0.00,VWS V14.01,2013-05-13 19:50:00,
2013-05-13 14:55:00,55.0,23.4,30.17,West,264,4.0,15.0,29,0.00,,---,0.00,VWS V14.01,2013-05-13 19:55:00,
2013-05-13 15:00:00,55.2,21.8,30.17,West,269,2.0,5.0,27,0.00,,---,0.00,VWS V14.01,2013-05-13 20:00:00,
2013-05-13 15:05:00,54.9,22.4,30.17,North,354,1.0,7.0,28,0.00,,---,0.00,VWS V14.01,2013-05-13 20:05:00,
2013-05-13 15:10:00,55.4,23.7,30.17,WSW,256,7.0,9.0,29,0.00,,---,0.00,VWS V14.01,2013-05-13 20:10:00,
2013-05-13 15:15:00,55.5,23.0,30.17,NW,315,4.0,9.0,28,0.00,,---,0.00,VWS V14.01,2013-05-13 20:15:00,
2013-05-13 15:20:00,56.1,24.3,30.16,South,187,4.0,9.0,29,0.00,,---,0.00,VWS V14.01,2013-05-13 20:20:00,
2013-05-13 15:25:00,56.1,23.5,30.16,NNW,329,5.0,14.0,28,0.00,,---,0.00,VWS V14.01,2013-05-13 20:25:00,
2013-05-13 15:30:00,55.4,22.0,30.16,South,181,4.0,11.0,27,0.00,,---,0.00,VWS V14.01,2013-05-13 20:30:00,
2013-05-13 15:35:00,55.6,23.0,30.16,North,9,6.0,11.0,28,0.00,,---,0.00,VWS V14.01,2013-05-13 20:35:00,
2013-05-13 15:40:00,55.1,22.6,30.16,WSW,252,1.0,11.0,28,0.00,,---,0.00,VWS V14.01,2013-05-13 20:40:00,
2013-05-13 15:45:00,55.7,24.0,30.15,SSW,207,5.0,11.0,29,0.00,,---,0.00,VWS V14.01,2013-05-13 20:45:00,
2013-05-13 15:50:00,56.4,24.6,30.15,WSW,239,1.0,11.0,29,0.00,,---,0.00,VWS V14.01,2013-05-13 20:50:00,
2013-05-13 15:55:00,56.6,25.5,30.15,NW,319,3.0,11.0,30,0.00,,---,0.00,VWS V14.01,2013-05-13 20:55:00,
2013-05-13 16:00:00,57.1,24.3,30.15,WNW,282,2.0,6.0,28,0.00,,---,0.00,VWS V14.01,2013-05-13 21:00:00,
2013-05-13 16:05:00,56.9,23.3,30.15,NW,314,4.0,9.0,27,0.00,,---,0.00,VWS V14.01,2013-05-13 21:05:00,
2013-05-13 16:10:00,56.0,22.5,30.15,West,264,1.0,10.0,27,0.00,,---,0.00,VWS V14.01,2013-05-13 21:10:00,
2013-05-13 16:15:00,55.8,24.0,30.15,West,274,2.0,10.0,29,0.00,,---,0.00,VWS V14.01,2013-05-13 21:15:00,
2013-05-13 16:20:00,56.0,24.2,30.15,West,277,1.0,10.0,29,0.00,,---,0.00,VWS V14.01,2013-05-13 21:20:00,
2013-05-13 16:25:00,56.2,22.7,30.15,WNW,285,2.0,10.0,27,0.00,,---,0.00,VWS V14.01,2013-05-13 21:25:00,
2013-05-13 16:30:00,56.8,23.2,30.14,SW,228,2.0,3.0,27,0.00,,---,0.00,VWS V14.01,2013-05-13 21:30:00,
2013-05-13 16:35:00,57.1,22.6,30.14,NE,53,2.0,5.0,26,0.00,,---,0.00,VWS V14.01,2013-05-13 21:35:00,
2013-05-13 16:40:00,56.9,24.1,30.14,West,265,2.0,7.0,28,0.00,,---,0.00,VWS V14.01,2013-05-13 21:40:00,
2013-05-13 16:45:00,57.4,25.4,30.14,NW,326,5.0,8.0,29,0.00,,---,0.00,VWS V14.01,2013-05-13 21:45:00,
2013-05-13 16:50:00,57.4,22.8,30.14,West,274,4.0,8.0,26,0.00,,---,0.00,VWS V14.01,2013-05-13 21:50:00,
2013-05-13 16:55:00,57.0,23.4,30.14,NNE,25,1.0,8.0,27,0.00,,---,0.00,VWS V14.01,2013-05-13 21:55:00,
2013-05-13 17:00:00,57.1,22.6,30.14,WSW,246,1.0,3.0,26,0.00,,---,0.00,VWS V14.01,2013-05-13 22:00:00,
2013-05-13 17:05:00,57.6,23.0,30.13,West,276,4.0,4.0,26,0.00,,---,0.00,VWS V14.01,2013-05-13 22:05:00,
2013-05-13 17:10:00,57.4,23.7,30.14,NW,309,2.0,10.0,27,0.00,,---,0.00,VWS V14.01,2013-05-13 22:10:00,
2013-05-13 17:15:00,57.4,23.7,30.14,NW,319,2.0,10.0,27,0.00,,---,0.00,VWS V14.01,2013-05-13 22:15:00,
2013-05-13 17:20:00,57.7,24.0,30.14,SSW,193,3.0,10.0,27,0.00,,---,0.00,VWS V14.01,2013-05-13 22:20:00,
2013-05-13 17:25:00,57.6,23.0,30.14,WNW,295,3.0,10.0,26,0.00,,---,0.00,VWS V14.01,2013-05-13 22:25:00,
2013-05-13 17:30:00,57.0,22.5,30.14,West,271,3.0,7.0,26,0.00,,---,0.00,VWS V14.01,2013-05-13 22:30:00,
2013-05-13 17:35:00,57.0,21.5,30.14,SW,226,1.0,8.0,25,0.00,,---,0.00,VWS V14.01,2013-05-13 22:35:00,
2013-05-13 17:40:00,56.5,21.1,30.14,SW,215,0.0,8.0,25,0.00,,---,0.00,VWS V14.01,2013-05-13 22:40:00,
2013-05-13 17:45:00,56.1,20.8,30.14,SE,133,0.0,8.0,25,0.00,,---,0.00,VWS V14.01,2013-05-13 22:45:00,
2013-05-13 17:50:00,56.4,22.9,30.14,NW,309,1.0,8.0,27,0.00,,---,0.00,VWS V14.01,2013-05-13 22:50:00,
2013-05-13 17:55:00,56.2,22.7,30.14,WSW,251,2.0,8.0,27,0.00,,---,0.00,VWS V14.01,2013-05-13 22:55:00,
2013-05-13 18:00:00,56.6,23.0,30.14,SW,222,2.0,4.0,27,0.00,,---,0.00,VWS V14.01,2013-05-13 23:00:00,
2013-05-13 18:05:00,56.2,22.7,30.14,WSW,249,1.0,5.0,27,0.00,,---,0.00,VWS V14.01,2013-05-13 23:05:00,
2013-05-13 18:10:00,55.8,23.2,30.14,WNW,300,4.0,5.0,28,0.00,,---,0.00,VWS V14.01,2013-05-13 23:10:00,
2013-05-13 18:15:00,55.6,23.0,30.14,SW,228,0.0,5.0,28,0.00,,---,0.00,VWS V14.01,2013-05-13 23:15:00,
2013-05-13 18:20:00,55.9,23.3,30.14,WNW,282,2.0,5.0,28,0.00,,---,0.00,VWS V14.01,2013-05-13 23:20:00,
2013-05-13 18:25:00,56.2,22.7,30.14,WNW,294,1.0,5.0,27,0.00,,---,0.00,VWS V14.01,2013-05-13 23:25:00,
2013-05-13 18:30:00,56.3,23.6,30.14,SW,222,0.0,4.0,28,0.00,,---,0.00,VWS V14.01,2013-05-13 23:30:00,
2013-05-13 18:35:00,56.2,25.2,30.14,NW,325,0.0,6.0,30,0.00,,---,0.00,VWS V14.01,2013-05-13 23:35:00,
2013-05-13 18:40:00,56.4,23.7,30.14,WNW,298,1.0,6.0,28,0.00,,---,0.00,VWS V14.01,2013-05-13 23:40:00,
2013-05-13 18:45:00,56.7,24.0,30.14,WNW,288,3.0,6.0,28,0.00,,---,0.00,VWS V14.01,2013-05-13 23:45:00,
2013-05-13 18:50:00,56.4,22.9,30.14,WNW,282,2.0,6.0,27,0.00,,---,0.00,VWS V14.01,2013-05-13 23:50:00,
2013-05-13 18:55:00,56.2,24.4,30.14,West,259,2.0,6.0,29,0.00,,---,0.00,VWS V14.01,2013-05-13 23:55:00,
2013-05-13 19:00:00,55.9,24.1,30.14,SE,138,0.0,2.0,29,0.00,,---,0.00,VWS V14.01,2013-05-14 00:00:00,
2013-05-13 19:05:00,55.9,24.1,30.14,NNW,329,0.0,2.0,29,0.00,,---,0.00,VWS V14.01,2013-05-14 00:05:00,
2013-05-13 19:10:00,55.5,23.8,30.14,WNW,285,0.0,3.0,29,0.00,,---,0.00,VWS V14.01,2013-05-14 00:10:00,
2013-05-13 19:15:00,54.6,24.6,30.14,WNW,291,1.0,3.0,31,0.00,,---,0.00,VWS V14.01,2013-05-14 00:15:00,
2013-05-13 19:20:00,53.5,25.1,30.14,WNW,291,0.0,3.0,33,0.00,,---,0.00,VWS V14.01,2013-05-14 00:20:00,
2013-05-13 19:25:00,52.4,24.9,30.14,WNW,291,0.0,3.0,34,0.00,,---,0.00,VWS V14.01,2013-05-14 00:25:00,
2013-05-13 19:30:00,51.3,25.3,30.14,WNW,291,0.0,0.0,36,0.00,,---,0.00,VWS V14.01,2013-05-14 00:30:00,
2013-05-13 19:35:00,50.4,25.8,30.14,WNW,291,0.0,0.0,38,0.00,,---,0.00,VWS V14.01,2013-05-14 00:35:00,
2013-05-13 19:40:00,49.5,25.0,30.14,WNW,291,0.0,0.0,38,0.00,,---,0.00,VWS V14.01,2013-05-14 00:40:00,
2013-05-13 19:45:00,48.7,26.1,30.14,WNW,291,0.0,0.0,41,0.00,,---,0.00,VWS V14.01,2013-05-14 00:45:00,
2013-05-13 19:50:00,47.9,27.6,30.15,WNW,291,0.0,0.0,45,0.00,,---,0.00,VWS V14.01,2013-05-14 00:50:00,
2013-05-13 19:55:00,47.1,25.8,30.15,WNW,290,0.0,0.0,43,0.00,,---,0.00,VWS V14.01,2013-05-14 00:55:00,
2013-05-13 20:00:00,46.4,27.3,30.15,WNW,290,0.0,0.0,47,0.00,,---,0.00,VWS V14.01,2013-05-14 01:00:00,
2013-05-13 20:05:00,45.9,27.8,30.14,WNW,291,0.0,0.0,49,0.00,,---,0.00,VWS V14.01,2013-05-14 01:05:00,
2013-05-13 20:10:00,45.2,26.7,30.14,WNW,291,0.0,0.0,48,0.00,,---,0.00,VWS V14.01,2013-05-14 01:10:00,
2013-05-13 20:15:00,44.8,28.7,30.14,WNW,290,0.0,0.0,53,0.00,,---,0.00,VWS V14.01,2013-05-14 01:15:00,
2013-05-13 20:20:00,44.1,28.5,30.14,WNW,291,0.0,0.0,54,0.00,,---,0.00,VWS V14.01,2013-05-14 01:20:00,
2013-05-13 20:25:00,43.1,28.5,30.14,WNW,290,0.0,0.0,56,0.00,,---,0.00,VWS V14.01,2013-05-14 01:25:00,
2013-05-13 20:30:00,42.2,28.1,30.14,WNW,291,0.0,0.0,57,0.00,,---,0.00,VWS V14.01,2013-05-14 01:30:00,
2013-05-13 20:35:00,41.2,27.6,30.14,WNW,290,0.0,0.0,58,0.00,,---,0.00,VWS V14.01,2013-05-14 01:35:00,
2013-05-13 20:40:00,40.6,27.4,30.14,WNW,291,0.0,0.0,59,0.00,,---,0.00,VWS V14.01,2013-05-14 01:40:00,
2013-05-13 20:45:00,40.2,27.8,30.14,WNW,290,0.0,0.0,61,0.00,,---,0.00,VWS V14.01,2013-05-14 01:45:00,
2013-05-13 20:50:00,40.6,28.6,30.14,WNW,291,0.0,0.0,62,0.00,,---,0.00,VWS V14.01,2013-05-14 01:50:00,
2013-05-13 20:55:00,40.8,29.2,30.15,WNW,290,0.0,0.0,63,0.00,,---,0.00,VWS V14.01,2013-05-14 01:55:00,
2013-05-13 21:00:00,40.3,28.7,30.15,WNW,291,0.0,0.0,63,0.00,,---,0.00,VWS V14.01,2013-05-14 02:00:00,
2013-05-13 21:05:00,39.6,28.4,30.14,WNW,291,0.0,0.0,64,0.00,,---,0.00,VWS V14.01,2013-05-14 02:05:00,
2013-05-13 21:10:00,39.1,28.7,30.15,WNW,291,0.0,0.0,66,0.00,,---,0.00,VWS V14.01,2013-05-14 02:10:00,
2013-05-13 21:15:00,38.5,28.5,30.15,WNW,291,0.0,0.0,67,0.00,,---,0.00,VWS V14.01,2013-05-14 02:15:00,
2013-05-13 21:20:00,38.2,28.6,30.15,WNW,291,0.0,0.0,68,0.00,,---,0.00,VWS V14.01,2013-05-14 02:20:00,
2013-05-13 21:25:00,37.9,28.3,30.15,WNW,291,0.0,0.0,68,0.00,,---,0.00,VWS V14.01,2013-05-14 02:25:00,
2013-05-13 21:30:00,37.5,28.3,30.15,WNW,291,0.0,0.0,69,0.00,,---,0.00,VWS V14.01,2013-05-14 02:30:00,
2013-05-13 21:35:00,37.8,30.6,30.15,WNW,290,0.0,0.0,75,0.00,,---,0.00,VWS V14.01,2013-05-14 02:35:00,
2013-05-13 21:40:00,38.0,30.5,30.15,WNW,291,0.0,0.0,74,0.00,,---,0.00,VWS V14.01,2013-05-14 02:40:00,
2013-05-13 21:45:00,37.9,30.0,30.15,WNW,291,0.0,0.0,73,0.00,,---,0.00,VWS V14.01,2013-05-14 02:45:00,
2013-05-13 21:50:00,38.7,31.5,30.15,East,93,0.0,2.0,75,0.00,,---,0.00,VWS V14.01,2013-05-14 02:50:00,
2013-05-13 21:55:00,39.5,31.9,30.15,East,94,0.0,2.0,74,0.00,,---,0.00,VWS V14.01,2013-05-14 02:55:00,
2013-05-13 22:00:00,40.3,31.7,30.15,East,94,0.0,0.0,71,0.00,,---,0.00,VWS V14.01,2013-05-14 03:00:00,
2013-05-13 22:05:00,41.0,31.6,30.15,East,94,0.0,0.0,69,0.00,,---,0.00,VWS V14.01,2013-05-14 03:05:00,
2013-05-13 22:10:00,41.5,32.1,30.14,East,94,0.0,0.0,69,0.00,,---,0.00,VWS V14.01,2013-05-14 03:10:00,
2013-05-13 22:15:00,41.8,31.7,30.14,ESE,111,0.0,1.0,67,0.00,,---,0.00,VWS V14.01,2013-05-14 03:15:00,
2013-05-13 22:20:00,42.5,31.2,30.14,ESE,111,0.0,1.0,64,0.00,,---,0.00,VWS V14.01,2013-05-14 03:20:00,
2013-05-13 22:25:00,42.9,31.2,30.14,ESE,111,1.0,1.0,63,0.00,,---,0.00,VWS V14.01,2013-05-14 03:25:00,
2013-05-13 22:30:00,43.2,31.1,30.14,SE,126,0.0,0.0,62,0.00,,---,0.00,VWS V14.01,2013-05-14 03:30:00,
2013-05-13 22:35:00,43.2,30.7,30.14,SE,125,0.0,1.0,61,0.00,,---,0.00,VWS V14.01,2013-05-14 03:35:00,
2013-05-13 22:40:00,43.2,30.7,30.14,SE,125,0.0,1.0,61,0.00,,---,0.00,VWS V14.01,2013-05-14 03:40:00,
2013-05-13 22:45:00,43.2,30.7,30.14,SE,124,0.0,1.0,61,0.00,,---,0.00,VWS V14.01,2013-05-14 03:45:00,
2013-05-13 22:50:00,43.1,30.6,30.14,SE,124,0.0,1.0,61,0.00,,---,0.00,VWS V14.01,2013-05-14 03:50:00,
2013-05-13 22:55:00,43.1,30.2,30.14,SE,124,0.0,1.0,60,0.00,,---,0.00,VWS V14.01,2013-05-14 03:55:00,
2013-05-13 23:00:00,43.1,30.6,30.14,SE,124,0.0,0.0,61,0.00,,---,0.00,VWS V14.01,2013-05-14 04:00:00,
2013-05-13 23:01:00,43.1,30.6,30.14,SE,124,0.0,0.0,61,0.00,,---,0.00,VWS V14.01,2013-05-14 04:01:00,
2013-05-13 23:06:00,42.7,30.6,30.14,SE,124,0.0,0.0,62,0.00,,---,0.00,VWS V14.01,2013-05-14 04:06:00,
2013-05-13 23:11:00,42.1,30.0,30.14,SE,124,0.0,0.0,62,0.00,,---,0.00,VWS V14.01,2013-05-14 04:11:00,
2013-05-13 23:16:00,41.4,29.8,30.14,SE,124,0.0,0.0,63,0.00,,---,0.00,VWS V14.01,2013-05-14 04:16:00,
2013-05-13 23:21:00,40.8,30.3,30.14,SE,124,0.0,0.0,66,0.00,,---,0.00,VWS V14.01,2013-05-14 04:21:00,
2013-05-13 23:26:00,40.5,30.0,30.14,SE,124,0.0,0.0,66,0.00,,---,0.00,VWS V14.01,2013-05-14 04:26:00,
2013-05-13 23:30:00,40.4,30.3,30.14,SE,124,0.0,0.0,67,0.00,,---,0.00,VWS V14.01,2013-05-14 04:30:00,
2013-05-13 23:31:00,40.3,30.2,30.14,SE,124,0.0,0.0,67,0.00,,---,0.00,VWS V14.01,2013-05-14 04:31:00,
2013-05-13 23:36:00,40.2,30.1,30.14,SE,124,0.0,0.0,67,0.00,,---,0.00,VWS V14.01,2013-05-14 04:36:00,
2013-05-13 23:41:00,40.0,30.3,30.14,SE,124,0.0,0.0,68,0.00,,---,0.00,VWS V14.01,2013-05-14 04:41:00,
2013-05-13 23:46:00,40.4,31.0,30.13,SE,130,1.0,2.0,69,0.00,,---,0.00,VWS V14.01,2013-05-14 04:46:00,
2013-05-13 23:51:00,40.9,31.2,30.14,SE,127,0.0,2.0,68,0.00,,---,0.00,VWS V14.01,2013-05-14 04:51:00,
2013-05-13 23:56:00,40.9,31.2,30.13,SE,127,0.0,2.0,68,0.00,,---,0.00,VWS V14.01,2013-05-14 04:56:00,